When you browse on this site, cookies collect data to enhance your experience and personalize the content and advertising you see.
Visit our Privacy Policy to learn more. By continuing to use the site, you agree to this use of cookies and data.
  • En España
  • Lista de países
  • Para 7 días
  • Temperatura del agua
  • El tiempo en el mapa
  • Informadores
  • user-avatar
    Iniciar sesión

    Tiempo cada hora Florence

    Hoy, 22 Noviembre, Viernes

    Tiempo Temperatura Precipitaciones Viento Presión Humedad
    00:00 +10°C° 0 mm 1 mps 755 mmHg 87%
    01:00 +10°C° 0 mm 1 mps 755 mmHg 87%
    02:00 +10°C° 0 mm 1 mps 755 mmHg 87%
    03:00 +10°C° 0 mm 1 mps 754 mmHg 87%
    04:00 +10°C° 0 mm 1 mps 754 mmHg 87%
    05:00 +10°C° 0 mm 1 mps 754 mmHg 87%
    06:00 +10°C° 0 mm 1 mps 754 mmHg 87%
    07:00 +10°C° 0 mm 1 mps 755 mmHg 86%
    08:00 +11°C° 0 mm 1 mps 755 mmHg 84%
    09:00 +12°C° 0 mm 1 mps 755 mmHg 81%
    10:00 +13°C° 0 mm 1 mps 755 mmHg 79%
    11:00 +14°C° 0 mm 1 mps 755 mmHg 77%
    12:00 +15°C° 0 mm 1 mps 755 mmHg 75%
    13:00 +16°C° 0 mm 1 mps 754 mmHg 73%
    14:00 +15°C° 0.1 mm 1 mps 754 mmHg 76%
    15:00 +15°C° 0.1 mm 1 mps 754 mmHg 79%
    16:00 +14°C° 0.1 mm 1 mps 753 mmHg 81%
    17:00 +13°C° 0 mm 1 mps 754 mmHg 83%
    18:00 +13°C° 0 mm 1 mps 754 mmHg 85%
    19:00 +12°C° 0 mm 1 mps 754 mmHg 87%
    20:00 +12°C° 0 mm 1 mps 754 mmHg 87%
    21:00 +12°C° 0 mm 1 mps 754 mmHg 87%
    22:00 +12°C° 0 mm 1 mps 754 mmHg 87%
    23:00 +12°C° 0 mm 1 mps 754 mmHg 88%

    Mañana, 23 Noviembre, Sábado

    Tiempo Temperatura Precipitaciones Viento Presión Humedad
    00:00 +12°C° 0 mm 1 mps 753 mmHg 88%
    01:00 +13°C° 0 mm 1 mps 753 mmHg 89%
    02:00 +13°C° 0.1 mm 2 mps 753 mmHg 89%
    03:00 +13°C° 0.1 mm 2 mps 752 mmHg 89%
    04:00 +13°C° 0.1 mm 2 mps 752 mmHg 89%
    05:00 +13°C° 0 mm 2 mps 751 mmHg 89%
    06:00 +12°C° 0 mm 2 mps 751 mmHg 89%
    07:00 +12°C° 0 mm 1 mps 751 mmHg 89%
    08:00 +13°C° 0 mm 2 mps 751 mmHg 85%
    09:00 +14°C° 0 mm 2 mps 751 mmHg 80%
    10:00 +15°C° 0 mm 2 mps 751 mmHg 76%
    11:00 +14°C° 0 mm 3 mps 750 mmHg 75%
    12:00 +16°C° 0 mm 3 mps 750 mmHg 73%
    13:00 +15°C° 0 mm 4 mps 750 mmHg 72%
    14:00 +16°C° 0.1 mm 3 mps 749 mmHg 73%
    15:00 +16°C° 0.1 mm 3 mps 749 mmHg 75%
    16:00 +16°C° 0.1 mm 2 mps 749 mmHg 77%
    17:00 +14°C° 0.1 mm 3 mps 749 mmHg 78%
    18:00 +14°C° 0.1 mm 3 mps 748 mmHg 80%
    19:00 +13°C° 0.1 mm 3 mps 748 mmHg 81%
    20:00 +13°C° 0.4 mm 3 mps 748 mmHg 83%
    21:00 +13°C° 0.4 mm 3 mps 748 mmHg 85%
    22:00 +13°C° 0.4 mm 3 mps 749 mmHg 86%
    23:00 +14°C° 0.5 mm 2 mps 749 mmHg 87%

    Pasado mañana, 24 Noviembre, Domingo

    Tiempo Temperatura Precipitaciones Viento Presión Humedad
    00:00 +14°C° 0.5 mm 2 mps 748 mmHg 88%
    01:00 +14°C° 0.5 mm 2 mps 748 mmHg 89%
    02:00 +14°C° 0.5 mm 2 mps 748 mmHg 89%
    03:00 +13°C° 0.5 mm 2 mps 748 mmHg 89%
    04:00 +13°C° 0.5 mm 2 mps 748 mmHg 89%
    05:00 +13°C° 0.1 mm 2 mps 748 mmHg 88%
    06:00 +13°C° 0.1 mm 2 mps 749 mmHg 87%
    07:00 +13°C° 0.1 mm 2 mps 749 mmHg 86%
    08:00 +14°C° 0 mm 1 mps 749 mmHg 84%
    09:00 +15°C° 0 mm 1 mps 749 mmHg 81%
    10:00 +15°C° 0 mm 1 mps 749 mmHg 79%
    11:00 +16°C° 0 mm 2 mps 749 mmHg 76%
    12:00 +17°C° 0 mm 2 mps 749 mmHg 72%
    13:00 +18°C° 0 mm 3 mps 749 mmHg 69%
    14:00 +17°C° 0 mm 3 mps 749 mmHg 72%
    15:00 +16°C° 0 mm 3 mps 749 mmHg 75%
    16:00 +15°C° 0 mm 4 mps 749 mmHg 78%
    17:00 +15°C° 0 mm 4 mps 749 mmHg 80%
    18:00 +15°C° 0 mm 4 mps 749 mmHg 81%
    19:00 +15°C° 0 mm 4 mps 749 mmHg 82%
    20:00 +15°C° 0 mm 4 mps 749 mmHg 83%
    21:00 +15°C° 0 mm 4 mps 750 mmHg 83%
    22:00 +15°C° 0 mm 5 mps 750 mmHg 83%
    23:00 +15°C° 0.1 mm 5 mps 750 mmHg 83%

    25 Noviembre, Lunes

    Tiempo Temperatura Precipitaciones Viento Presión Humedad
    00:00 +15°C° 0.1 mm 4 mps 750 mmHg 83%
    01:00 +15°C° 0.1 mm 4 mps 750 mmHg 83%
    02:00 +14°C° 0 mm 4 mps 750 mmHg 83%
    03:00 +14°C° 0 mm 4 mps 750 mmHg 82%
    04:00 +14°C° 0 mm 4 mps 750 mmHg 82%
    05:00 +14°C° 0 mm 4 mps 751 mmHg 83%
    06:00 +14°C° 0 mm 3 mps 751 mmHg 83%
    07:00 +14°C° 0 mm 3 mps 751 mmHg 83%
    08:00 +14°C° 0 mm 3 mps 752 mmHg 81%
    09:00 +16°C° 0 mm 2 mps 752 mmHg 79%
    10:00 +16°C° 0 mm 2 mps 753 mmHg 78%
    11:00 +17°C° 0 mm 2 mps 752 mmHg 74%
    12:00 +18°C° 0 mm 2 mps 752 mmHg 70%
    13:00 +20°C° 0 mm 1 mps 752 mmHg 66%
    14:00 +19°C° 0 mm 1 mps 752 mmHg 69%
    15:00 +19°C° 0 mm 1 mps 752 mmHg 72%
    16:00 +16°C° 0 mm 0 mps 752 mmHg 76%
    17:00 +15°C° 0 mm 0 mps 752 mmHg 78%
    18:00 +14°C° 0 mm 0 mps 752 mmHg 81%
    19:00 +14°C° 0 mm 0 mps 752 mmHg 84%
    20:00 +13°C° 0 mm 0 mps 753 mmHg 85%
    21:00 +13°C° 0 mm 0 mps 753 mmHg 85%
    22:00 +13°C° 0 mm 0 mps 753 mmHg 86%
    23:00 +13°C° 0 mm 0 mps 753 mmHg 87%

    26 Noviembre, Martes

    Tiempo Temperatura Precipitaciones Viento Presión Humedad
    00:00 +12°C° 0 mm 0 mps 753 mmHg 88%
    01:00 +12°C° 0 mm 0 mps 753 mmHg 89%
    02:00 +12°C° 0 mm 0 mps 753 mmHg 89%
    03:00 +12°C° 0 mm 0 mps 753 mmHg 90%
    04:00 +11°C° 0 mm 0 mps 753 mmHg 90%
    05:00 +11°C° 0 mm 0 mps 753 mmHg 90%
    06:00 +11°C° 0 mm 0 mps 753 mmHg 91%
    07:00 +11°C° 0 mm 0 mps 753 mmHg 91%
    08:00 +12°C° 0 mm 0 mps 753 mmHg 87%
    09:00 +13°C° 0 mm 0 mps 754 mmHg 83%
    10:00 +14°C° 0 mm 0 mps 754 mmHg 79%
    11:00 +15°C° 0 mm 0 mps 754 mmHg 76%
    12:00 +18°C° 0 mm 1 mps 754 mmHg 72%
    13:00 +19°C° 0 mm 1 mps 754 mmHg 69%
    14:00 +18°C° 0.1 mm 1 mps 754 mmHg 72%
    15:00 +18°C° 0.1 mm 1 mps 754 mmHg 75%
    16:00 +16°C° 0.1 mm 1 mps 754 mmHg 78%
    17:00 +15°C° 0 mm 1 mps 754 mmHg 81%
    18:00 +14°C° 0 mm 1 mps 754 mmHg 84%
    19:00 +13°C° 0 mm 1 mps 754 mmHg 87%
    20:00 +13°C° 0 mm 1 mps 754 mmHg 87%
    21:00 +13°C° 0 mm 1 mps 754 mmHg 88%
    22:00 +12°C° 0 mm 1 mps 754 mmHg 89%
    23:00 +12°C° 0 mm 1 mps 754 mmHg 89%

    27 Noviembre, Miércoles

    Tiempo Temperatura Precipitaciones Viento Presión Humedad
    00:00 +12°C° 0 mm 1 mps 754 mmHg 90%
    01:00 +12°C° 0 mm 1 mps 754 mmHg 91%
    02:00 +12°C° 0 mm 1 mps 754 mmHg 91%
    03:00 +12°C° 0 mm 1 mps 753 mmHg 91%
    04:00 +13°C° 0 mm 1 mps 753 mmHg 91%
    05:00 +13°C° 0 mm 2 mps 753 mmHg 91%
    06:00 +13°C° 0 mm 2 mps 753 mmHg 91%
    07:00 +13°C° 0 mm 2 mps 753 mmHg 91%
    08:00 +13°C° 0 mm 2 mps 752 mmHg 89%
    09:00 +14°C° 0 mm 2 mps 752 mmHg 87%
    10:00 +13°C° 0 mm 3 mps 752 mmHg 84%
    11:00 +14°C° 0 mm 3 mps 751 mmHg 84%
    12:00 +14°C° 0 mm 4 mps 751 mmHg 83%
    13:00 +15°C° 0 mm 4 mps 750 mmHg 83%
    14:00 +15°C° 0.1 mm 5 mps 750 mmHg 84%
    15:00 +15°C° 0.1 mm 5 mps 749 mmHg 85%
    16:00 +15°C° 0.1 mm 6 mps 749 mmHg 86%
    17:00 +15°C° 0.6 mm 5 mps 749 mmHg 88%
    18:00 +14°C° 0.6 mm 5 mps 749 mmHg 89%
    19:00 +14°C° 0.6 mm 4 mps 749 mmHg 91%
    20:00 +14°C° 0.5 mm 4 mps 749 mmHg 90%
    21:00 +13°C° 0.5 mm 3 mps 750 mmHg 90%
    22:00 +13°C° 0.5 mm 3 mps 750 mmHg 89%
    23:00 +13°C° 0.1 mm 3 mps 750 mmHg 88%
    Mostrar más